カタログに戻る

STARLINK-37468

運用中通信SSO
NORAD 68857·PAYLOAD·🇺🇸 United States

打ち上げ Apr 26, 2026 から Vandenberg Space Force Base

Loading…

次のパス (今後24時間)

TLE

最新Source: CelesTrak SupGP

元期: Sep 15, 2026, 03:13 UTC

1 68857C 26094U   26258.13451389 -.00064032  00000+0 -19880-2 0  2584
2 68857  97.2834 271.3764 0001582  88.9926  69.7622 15.33466204    14

AllMySatでSTARLINK-37468をリアルタイム追跡

Download on the App Store